Location: Hradec Kralove
(50.2170°N, 15.8330°E)
Time: 05:17:37
(UTC+02:00)

TIGRISAT - Pass Details

Date: 09 August 2024
Orbit: 591 x 667 km, 97.7° (Epoch: 19 September)

Event Time Altitude Azimuth Distance (km) Brightness Sun altitude
Rises 04:46:59 0° 173° (S) 2,936 ? -7.7°
Reaches altitude 10° 04:49:14 10° 177° (S) 2,019 ? -7.4°
Maximum altitude 04:53:35 63° 258° (WSW) 700 ? -6.9°
Drops below altitude 10° 04:57:53 10° 341° (NNW) 1,987 ? -6.3°
Sets 05:00:04 0° 344° (NNW) 2,885 ? -6.0°
